Muncie, IN

4:29 AM EST on February 11, 2016 (GMT -0500)
Delaware County-Johnson

Weather History for KMIE - June, 2012

Change the Weather History Date:

Wednesday, June 20, 2012

  Actual Average Record
Temperature  
Mean Temperature 82 °F 73 °F  
Max Temperature 92 °F 83 °F 94 °F (1975)
Min Temperature 72 °F 63 °F 48 °F (1980)
Degree Days  
Heating Degree Days 0 0  
Month to date heating degree days 25 21  
Since 1 June heating degree days 25 21  
Since 1 July heating degree days 4686 5780  
Cooling Degree Days 17 8  
Month to date cooling degree days 131 124  
Year to date cooling degree days 309 207  
Since 1 June cooling degree days 131 124  
Growing Degree Days 32 (Base 50)    
Moisture  
Dew Point 58 °F    
Average Humidity 48    
Maximum Humidity 68    
Minimum Humidity 28    
Precipitation  
Precipitation 0.00 in 0.15 in 2.34 in (1983)
Month to date precipitation 0.69 3.13  
Year to date precipitation 12.93 18.70  
Sea Level Pressure  
Sea Level Pressure 30.05 in    
Wind  
Wind Speed 9 mph (SSW)    
Max Wind Speed 17 mph    
Max Gust Speed 23 mph    
Visibility 10 miles    
Events      
T = Trace of Precipitation, MM = Missing Value Source: NWS Daily Summary

Daily Weather History Graph

Daily Weather History Graph

Search for Another Location

Airport or City:

Trip Planner

Search our weather history database for the weather conditions in past years. The results will help you decide how hot, cold, wet, or windy it might be!

Date:

Astronomy

Jun. 20, 2012 Rise Set
Actual Time 6:12 AM EDT 9:14 PM EDT
Civil Twilight 5:38 AM EDT 9:47 PM EDT
Nautical Twilight 4:56 AM EDT 10:29 PM EDT
Astronomical Twilight 4:07 AM EDT 11:19 PM EDT
Moon 7:11 AM EDT (6/20) 9:59 PM EDT (6/20)
Length of Visible Light 16h 08m
Length of Day
15h 02m
New Moon, 1% of the Moon is Illuminated
Jun 20
New Moon
Jun 26
First Quarter
Jul 3
Full
Jul 10
Last Quarter
Jul 19
New

Hourly Weather History & Observations

Time (EDT) Temp. Heat Index Dew Point Humidity Pressure Visibility Wind Dir Wind Speed Gust Speed Precip Events Conditions
12:53 AM 77.0 °F - 60.1 °F 56% 30.06 in 10.0 mi South 6.9 mph - N/A   Clear
1:53 AM 75.9 °F - 60.1 °F 58% 30.06 in 10.0 mi South 6.9 mph - N/A   Clear
2:53 AM 75.0 °F - 61.0 °F 62% 30.05 in 10.0 mi SSW 4.6 mph - N/A   Clear
3:53 AM 73.9 °F - 61.0 °F 64% 30.05 in 10.0 mi South 5.8 mph - N/A   Clear
4:53 AM 73.0 °F - 61.0 °F 66% 30.05 in 10.0 mi South 5.8 mph - N/A   Clear
5:53 AM 73.0 °F - 61.0 °F 66% 30.07 in 10.0 mi South 5.8 mph - N/A   Clear
6:53 AM 72.0 °F - 61.0 °F 68% 30.09 in 10.0 mi South 5.8 mph - N/A   Clear
7:53 AM 75.0 °F - 61.0 °F 62% 30.11 in 10.0 mi South 5.8 mph - N/A   Clear
8:53 AM 79.0 °F - 61.0 °F 54% 30.12 in 10.0 mi SW 8.1 mph - N/A   Clear
9:53 AM 82.0 °F 82.4 °F 60.1 °F 47% 30.12 in 10.0 mi SSW 8.1 mph - N/A   Clear
10:53 AM 84.9 °F 84.4 °F 59.0 °F 41% 30.12 in 10.0 mi SSW 11.5 mph - N/A   Clear
11:53 AM 87.1 °F 85.9 °F 57.0 °F 36% 30.11 in 10.0 mi SW 11.5 mph 23.0 mph N/A   Clear
1:53 PM 90.0 °F 88.1 °F 55.9 °F 31% 30.09 in 10.0 mi WSW 10.4 mph 18.4 mph N/A   Partly Cloudy
2:53 PM 90.0 °F 87.9 °F 55.0 °F 30% 30.06 in 10.0 mi WSW 12.7 mph 20.7 mph N/A   Clear
3:53 PM 91.9 °F 89.5 °F 54.0 °F 27% 30.05 in 10.0 mi WSW 13.8 mph 20.7 mph N/A   Clear
4:53 PM 91.0 °F 88.5 °F 53.1 °F 27% 30.02 in 10.0 mi SW 11.5 mph 19.6 mph N/A   Clear
5:53 PM 91.0 °F 88.7 °F 54.0 °F 28% 30.01 in 10.0 mi SSW 11.5 mph 18.4 mph N/A   Clear
6:53 PM 90.0 °F 87.9 °F 55.0 °F 30% 29.99 in 10.0 mi SSW 13.8 mph 21.9 mph N/A   Clear
7:53 PM 88.0 °F 86.5 °F 55.9 °F 34% 29.99 in 10.0 mi SSW 13.8 mph 20.7 mph N/A   Clear
8:53 PM 86.0 °F 85.0 °F 57.9 °F 38% 29.98 in 10.0 mi SSW 6.9 mph - N/A   Clear
9:53 PM 82.9 °F 82.6 °F 57.9 °F 42% 29.98 in 10.0 mi SSW 8.1 mph - N/A   Clear
10:53 PM 82.0 °F 82.1 °F 59.0 °F 45% 29.99 in 10.0 mi SSW 8.1 mph - N/A   Clear
11:53 PM 80.1 °F 80.7 °F 59.0 °F 48% 29.99 in 10.0 mi SSW 6.9 mph - N/A   Clear